period_start,C,m1,H,J0,J1,J2,J3,J4,J5,JA,JB,JC,JD,JJ,JK,JN,#
2015-01-16 00:02:08,0.12,0.78,0.00,23.85,27.80,30.41,4.70,26.67,1026.37,2029.99,3123.67,3085.32,3344.61,349.56,349.70,6.65,0000 0000 0000 0000 000000
2015-01-16 00:07:09,0.10,0.79,0.00,23.86,27.80,30.42,4.81,26.93,1026.23,2029.98,3122.60,3084.35,3343.44,350.10,350.09,6.68,0000 0000 0000 0000 000000
2015-01-16 00:12:11,0.12,0.79,0.00,23.84,27.80,30.40,4.83,26.93,1026.13,2029.98,3121.09,3083.36,3342.32,349.79,349.75,6.71,0000 0000 0000 0000 000000
2015-01-16 00:17:12,0.11,0.79,0.00,23.87,27.80,30.41,4.72,26.86,1026.03,2029.98,3119.55,3082.40,3341.49,349.61,349.49,6.74,0000 0000 0000 0000 000000
2015-01-16 00:22:13,0.11,0.80,0.00,23.88,27.80,30.40,4.77,26.77,1025.94,2029.97,3118.05,3081.37,3340.32,349.58,349.43,6.77,0000 0000 0000 0000 000000
2015-01-16 00:27:14,0.12,0.80,0.00,23.83,27.80,30.42,4.81,26.82,1025.92,2029.98,3116.56,3080.40,3339.32,350.46,350.28,6.80,0000 0000 0000 0000 000000
2015-01-16 00:32:15,0.10,0.81,0.00,23.80,27.80,30.38,4.71,26.88,1025.90,2029.98,3115.37,3079.46,3338.18,349.10,348.95,6.83,0000 0000 0000 0000 000000
2015-01-16 00:37:16,0.11,0.81,0.00,23.82,27.80,30.42,4.85,26.83,1025.89,2029.97,3113.92,3078.48,3337.12,350.40,350.29,6.85,0000 0000 0000 0000 000000
2015-01-16 00:42:18,0.11,0.81,0.00,23.81,27.80,30.43,4.81,26.97,1025.85,2029.96,3112.39,3077.51,3336.13,349.85,349.74,6.88,0000 0000 0000 0000 000000
2015-01-16 00:47:19,0.09,0.81,0.00,23.82,27.80,30.41,4.78,26.77,1025.78,2029.97,3111.30,3076.73,3335.19,349.48,349.30,6.91,0000 0000 0000 0000 000000
2015-01-16 00:52:20,0.08,0.82,0.00,23.79,27.81,30.42,4.89,26.82,1025.61,2029.97,3110.02,3075.94,3334.31,350.34,350.15,6.94,0000 0000 0000 0000 000000
2015-01-16 00:57:21,0.09,0.82,0.00,23.76,27.81,30.45,4.86,26.98,1025.45,2029.98,3108.93,3075.09,3333.45,349.94,349.68,6.97,0000 0000 0000 0000 000000
2015-01-16 01:02:22,0.10,0.82,0.00,23.83,27.82,30.43,4.82,26.96,1025.42,2029.99,3107.71,3074.28,3332.71,349.86,349.43,7.00,0000 0000 0000 0000 000000
2015-01-16 01:07:24,0.08,0.83,0.00,23.80,27.82,30.46,4.72,26.88,1025.41,2029.99,3106.57,3073.58,3331.94,349.96,349.60,7.03,0000 0000 0000 0000 000000
2015-01-16 01:12:25,0.08,0.83,0.00,23.81,27.82,30.45,4.78,26.79,1025.41,2029.99,3105.38,3072.80,3331.04,349.78,349.53,7.06,0000 0000 0000 0000 000000
2015-01-16 01:17:26,0.08,0.83,0.00,23.79,27.82,30.48,4.84,26.96,1025.41,2029.99,3104.27,3072.00,3330.13,350.53,350.19,7.09,0000 0000 0000 0000 000000
2015-01-16 01:22:27,0.10,0.83,0.00,23.81,27.81,30.49,4.87,26.94,1025.40,2029.99,3103.01,3071.14,3329.33,350.15,349.88,7.12,0000 0000 0000 0000 000000
2015-01-16 01:27:28,0.11,0.84,0.00,23.80,27.82,30.48,4.87,27.03,1025.38,2029.99,3101.66,3070.21,3328.14,350.02,349.69,7.15,0000 0000 0000 0000 000000
2015-01-16 01:32:30,0.13,0.84,0.00,23.82,27.82,30.46,4.75,26.99,1025.39,2029.99,3100.16,3069.06,3326.82,349.72,349.45,7.18,0000 0000 0000 0000 000000
2015-01-16 01:37:31,0.15,0.85,0.00,23.80,27.81,30.48,4.75,26.88,1025.19,2029.98,3098.38,3067.84,3325.55,349.11,348.88,7.21,0000 0000 0000 0000 000000
2015-01-16 01:42:32,0.13,0.85,0.00,23.82,27.81,30.43,4.80,26.82,1024.97,2029.98,3096.82,3066.70,3324.03,349.86,349.38,7.24,0000 0000 0000 0000 000000
2015-01-16 01:47:33,0.11,0.85,0.00,23.83,27.81,30.43,4.84,26.98,1024.93,2029.95,3095.27,3065.67,3322.93,349.84,349.40,7.27,0000 0000 0000 0000 000000
2015-01-16 01:52:34,0.16,0.86,0.00,23.82,27.82,30.42,4.85,26.82,1024.92,2029.96,3093.49,3064.50,3321.73,350.22,349.84,7.29,0000 0000 0000 0000 000000
2015-01-16 01:57:36,0.13,0.86,0.00,23.77,27.82,30.43,4.77,26.86,1024.90,2029.98,3091.65,3063.40,3320.55,349.77,349.32,7.32,0000 0000 0000 0000 000000
2015-01-16 02:02:37,0.14,0.87,0.00,23.78,27.82,30.43,4.78,26.90,1024.82,2029.98,3089.72,3062.09,3319.36,349.66,349.24,7.35,0000 0000 0000 0000 000000
2015-01-16 02:07:38,0.16,0.87,0.00,23.82,27.82,30.42,4.80,26.78,1024.58,2029.97,3087.85,3060.78,3317.93,349.90,349.35,7.38,0000 0000 0000 0000 000000
2015-01-16 02:12:39,0.13,0.87,0.00,23.80,27.82,30.41,4.76,26.87,1024.47,2029.92,3086.10,3059.58,3316.61,350.38,349.97,7.41,0000 0000 0000 0000 000000
2015-01-16 02:17:41,0.11,0.88,0.00,23.79,27.82,30.40,4.83,26.80,1024.44,2029.96,3084.77,3058.65,3315.49,350.08,349.49,7.44,0000 0000 0000 0000 000000
2015-01-16 02:22:42,0.10,0.88,0.00,23.79,27.82,30.41,4.75,26.88,1024.43,2029.92,3083.43,3057.77,3314.56,349.17,348.51,7.47,0000 0000 0000 0000 000000
2015-01-16 02:27:43,0.11,0.88,0.00,23.79,27.82,30.41,4.83,26.73,1024.43,2029.92,3081.96,3056.82,3313.57,349.83,349.24,7.50,0000 0000 0000 0000 000000
2015-01-16 02:32:45,0.09,0.89,0.00,23.84,27.82,30.40,4.76,26.76,1024.36,2029.89,3080.61,3055.89,3312.50,349.92,349.41,7.53,0000 0000 0000 0000 000000
2015-01-16 02:37:46,0.11,0.89,0.00,23.81,27.82,30.43,4.77,26.87,1024.29,2029.86,3079.20,3054.84,3311.49,349.47,348.79,7.56,0000 0000 0000 0000 000000
2015-01-16 02:42:47,0.13,0.89,0.00,23.80,27.82,30.44,4.89,26.86,1024.01,2029.69,3077.37,3053.65,3310.15,351.05,350.36,7.59,0000 0000 0000 0000 000000
2015-01-16 02:47:48,0.41,0.90,0.00,23.79,27.82,30.46,4.81,26.96,1023.95,2029.87,3073.40,3051.09,3307.46,350.07,349.38,7.62,0000 0000 0000 0000 000000
2015-01-16 02:52:49,0.36,0.92,0.00,23.78,27.82,30.44,4.82,27.00,1023.95,2029.83,3068.31,3047.78,3303.90,349.61,348.89,7.65,0000 0000 0000 0000 000000
2015-01-16 02:57:50,0.37,0.93,0.00,23.79,27.82,30.42,4.80,26.94,1023.94,2029.70,3063.46,3044.69,3300.59,350.19,349.19,7.67,0000 0000 0000 0000 000000
2015-01-16 03:02:51,0.37,0.94,0.00,23.78,27.82,30.44,4.83,26.89,1023.94,2029.57,3058.38,3041.48,3297.15,349.54,348.81,7.70,0000 0000 0000 0000 000000
2015-01-16 03:07:53,0.39,0.95,0.00,23.78,27.82,30.46,4.82,26.86,1023.94,2029.34,3052.99,3038.05,3293.57,350.28,349.42,7.73,0000 0000 0000 0000 000000
2015-01-16 03:12:54,0.39,0.96,0.00,23.79,27.82,30.46,4.81,26.86,1023.93,2029.28,3047.90,3034.80,3290.14,350.31,349.41,7.76,0000 0000 0000 0000 000000
2015-01-16 03:17:55,0.32,0.97,0.00,23.77,27.82,30.42,4.81,26.98,1023.82,2029.29,3043.66,3032.05,3287.13,350.04,349.36,7.79,0000 0000 0000 0000 000000
2015-01-16 03:22:57,0.20,0.98,0.00,23.76,27.82,30.43,4.86,27.04,1023.70,2029.41,3041.02,3030.43,3285.38,349.84,349.06,7.82,0000 0000 0000 0000 000000
2015-01-16 03:27:58,0.20,0.98,0.00,23.78,27.82,30.44,4.81,26.92,1023.59,2029.41,3038.77,3028.91,3283.75,349.92,349.02,7.85,0000 0000 0000 0000 000000
2015-01-16 03:32:59,0.19,0.99,0.00,23.78,27.82,30.47,4.73,26.78,1023.53,2029.31,3036.13,3027.25,3282.02,349.59,348.75,7.88,0000 0000 0000 0000 000000
2015-01-16 03:38:00,0.21,1.00,0.00,23.80,27.82,30.42,4.82,26.99,1023.48,2029.41,3033.49,3025.53,3280.13,350.84,350.03,7.91,0000 0000 0000 0000 000000
2015-01-16 03:43:01,0.17,1.00,0.00,23.79,27.82,30.44,4.79,26.93,1023.46,2029.25,3031.08,3023.92,3278.36,349.87,348.94,7.94,0000 0000 0000 0000 000000
2015-01-16 03:48:03,0.20,1.01,0.00,23.76,27.82,30.44,4.78,26.97,1023.45,2029.23,3028.55,3022.29,3276.61,349.58,348.56,7.97,0000 0000 0000 0000 000000
2015-01-16 03:53:04,0.15,1.01,0.00,23.79,27.82,30.43,4.75,26.94,1023.45,2029.17,3026.43,3020.85,3274.99,349.47,348.42,8.00,0000 0000 0000 0000 000000
2015-01-16 03:58:06,0.14,1.02,0.00,23.77,27.82,30.42,4.82,26.88,1023.42,2029.08,3024.71,3019.66,3273.66,349.74,348.91,8.03,0000 0000 0000 0000 000000
2015-01-16 04:03:07,0.12,1.02,0.00,23.75,27.82,30.41,4.78,26.90,1023.42,2029.03,3023.07,3018.56,3272.56,349.79,348.91,8.06,0000 0000 0000 0000 000000
2015-01-16 04:08:09,0.11,1.02,0.00,23.76,27.82,30.44,4.80,26.80,1023.17,2029.04,3021.51,3017.61,3271.62,350.18,349.16,8.08,0000 0000 0000 0000 000000
2015-01-16 04:13:10,0.12,1.03,0.00,23.77,27.82,30.41,4.76,26.82,1023.21,2029.09,3019.97,3016.62,3270.75,349.66,348.91,8.11,0000 0000 0000 0000 000000
2015-01-16 04:18:11,0.09,1.03,0.00,23.77,27.82,30.43,4.78,26.82,1023.32,2029.24,3018.94,3015.98,3269.90,350.26,349.38,8.14,0000 0000 0000 0000 000000
2015-01-16 04:23:13,0.10,1.03,0.00,23.77,27.82,30.44,4.81,26.87,1023.37,2029.16,3017.65,3015.12,3269.03,350.75,349.86,8.17,0000 0000 0000 0000 000000
2015-01-16 04:28:14,0.12,1.04,0.00,23.77,27.82,30.42,4.86,27.01,1023.35,2029.13,3016.21,3014.08,3267.84,350.08,349.25,8.20,0000 0000 0000 0000 000000
2015-01-16 04:33:15,0.15,1.04,0.00,23.77,27.82,30.39,4.84,26.77,1023.35,2029.11,3014.44,3012.93,3266.65,350.18,349.19,8.23,0000 0000 0000 0000 000000
2015-01-16 04:38:16,0.17,1.05,0.00,23.74,27.82,30.44,4.81,26.88,1023.29,2029.08,3012.26,3011.50,3265.08,350.26,349.36,8.26,0000 0000 0000 0000 000000
2015-01-16 04:43:18,0.17,1.05,0.00,23.74,27.82,30.44,4.84,26.92,1023.17,2029.10,3010.16,3010.06,3263.71,349.97,349.02,8.29,0000 0000 0000 0000 000000
2015-01-16 04:48:19,0.17,1.06,0.00,23.76,27.82,30.45,4.85,26.91,1023.12,2029.15,3008.26,3008.71,3262.41,350.25,349.15,8.32,0000 0000 0000 0000 000000
2015-01-16 04:53:20,0.18,1.06,0.00,23.77,27.83,30.45,4.73,26.93,1023.00,2029.22,3006.23,3007.50,3260.91,349.86,348.65,8.35,0000 0000 0000 0000 000000
2015-01-16 04:58:22,0.16,1.07,0.00,23.78,27.84,30.44,4.82,26.99,1022.98,2029.22,3004.11,3006.11,3259.33,349.97,348.91,8.38,0000 0000 0000 0000 000000
2015-01-16 05:03:23,0.22,1.07,0.00,23.76,27.84,30.44,4.80,26.89,1022.97,2029.08,3001.34,3004.25,3257.31,350.14,349.12,8.41,0000 0000 0000 0000 000000
2015-01-16 05:08:24,0.20,1.08,0.00,23.73,27.85,30.46,4.79,26.88,1022.95,2029.07,2999.00,3002.55,3255.38,349.88,348.38,8.44,0000 0000 0000 0000 000000
2015-01-16 05:13:26,0.14,1.08,0.00,23.73,27.85,30.45,4.79,27.02,1022.92,2029.02,2997.12,3001.30,3253.80,350.10,349.13,8.47,0000 0000 0000 0000 000000
2015-01-16 05:18:27,0.15,1.09,0.00,23.72,27.85,30.45,4.77,26.91,1022.90,2029.01,2995.32,3000.04,3252.56,349.93,348.92,8.50,0000 0000 0000 0000 000000
2015-01-16 05:23:28,0.17,1.09,0.00,23.77,27.85,30.45,4.84,27.00,1022.77,2029.00,2993.25,2998.73,3251.34,350.17,349.02,8.52,0000 0000 0000 0000 000000
2015-01-16 05:28:29,0.14,1.10,0.00,23.73,27.85,30.43,4.73,26.85,1022.65,2029.01,2991.43,2997.59,3250.02,349.70,348.68,8.55,0000 0000 0000 0000 000000
2015-01-16 05:33:30,0.16,1.10,0.00,23.74,27.85,30.43,4.87,27.08,1022.52,2029.02,2989.50,2996.36,3248.75,350.43,349.21,8.58,0000 0000 0000 0000 000000
2015-01-16 05:38:32,0.14,1.11,0.00,23.74,27.85,30.44,4.78,27.04,1022.51,2029.01,2987.65,2995.15,3247.46,349.45,348.17,8.61,0000 0000 0000 0000 000000
2015-01-16 05:43:33,0.18,1.11,0.00,23.74,27.85,30.45,4.68,26.87,1022.49,2029.01,2985.53,2993.74,3245.88,349.29,348.11,8.64,0000 0000 0000 0000 000000
2015-01-16 05:48:34,0.09,1.12,0.00,23.76,27.85,30.45,4.78,26.84,1022.49,2029.02,2984.16,2992.82,3244.96,350.07,348.83,8.67,0000 0000 0000 0000 000000
2015-01-16 05:53:35,0.08,1.12,0.00,23.76,27.85,30.45,4.80,26.87,1022.48,2029.02,2982.93,2992.03,3244.13,349.81,348.78,8.70,0000 0000 0000 0000 000000
2015-01-16 05:58:36,0.11,1.12,0.00,23.74,27.85,30.44,4.85,26.92,1022.48,2029.00,2981.76,2991.23,3243.29,350.55,349.37,8.73,0000 0000 0000 0000 000000
2015-01-16 06:03:37,0.09,1.12,0.00,23.73,27.85,30.45,4.75,26.81,1022.48,2029.00,2980.69,2990.56,3242.60,349.92,348.72,8.76,0000 0000 0000 0000 000000
2015-01-16 06:08:39,0.05,1.13,0.00,23.71,27.85,30.46,4.82,26.82,1022.48,2029.00,2979.78,2989.92,3241.82,350.14,348.96,8.79,0000 0000 0000 0000 000000
2015-01-16 06:13:40,0.09,1.13,0.00,23.70,27.85,30.49,4.89,27.01,1022.48,2029.01,2978.76,2989.09,3241.04,350.36,349.20,8.82,0000 0000 0000 0000 000000
2015-01-16 06:18:41,0.09,1.13,0.00,23.71,27.85,30.48,4.83,26.91,1022.47,2029.01,2977.83,2988.52,3240.37,350.75,349.59,8.85,0000 0000 0000 0000 000000
2015-01-16 06:23:43,0.03,1.13,0.00,23.73,27.85,30.48,4.78,26.90,1022.38,2029.02,2977.06,2988.01,3239.90,350.08,348.87,8.88,0000 0000 0000 0000 000000
2015-01-16 06:28:44,0.08,1.14,0.00,23.74,27.85,30.46,4.74,26.81,1022.33,2029.02,2976.40,2987.52,3239.09,349.93,348.70,8.90,0000 0000 0000 0000 000000
2015-01-16 06:33:45,0.06,1.14,0.00,23.73,27.85,30.45,4.77,26.92,1022.20,2029.00,2975.47,2986.92,3238.54,349.57,348.28,8.93,0000 0000 0000 0000 000000
2015-01-16 06:38:46,0.08,1.14,0.00,23.74,27.85,30.44,4.84,26.95,1022.13,2029.00,2974.57,2986.14,3237.86,350.01,348.72,8.96,0000 0000 0000 0000 000000
2015-01-16 06:43:48,0.07,1.14,0.00,23.73,27.85,30.47,4.83,26.97,1022.02,2029.02,2973.65,2985.72,3237.08,350.58,349.29,8.99,0000 0000 0000 0000 000000
2015-01-16 06:48:48,0.05,1.14,0.00,23.73,27.85,30.46,4.83,26.97,1021.99,2029.03,2972.75,2985.04,3236.87,350.00,348.61,9.02,0000 0000 0000 0000 000000
2015-01-16 06:53:50,0.10,1.15,0.00,23.72,27.85,30.49,4.75,26.97,1022.00,2029.02,2971.67,2984.50,3236.07,349.71,348.40,9.05,0000 0000 0000 0000 000000
2015-01-16 06:58:51,0.07,1.15,0.00,23.71,27.85,30.50,4.78,26.93,1021.99,2029.05,2970.66,2983.91,3235.45,350.06,348.79,9.08,0000 0000 0000 0000 000000
2015-01-16 07:03:53,0.07,1.15,0.00,23.72,27.85,30.48,4.75,26.96,1022.00,2029.05,2969.85,2983.14,3234.84,349.72,348.48,9.11,0000 0000 0000 0000 000000
2015-01-16 07:08:54,0.13,1.15,0.00,23.75,27.85,30.49,4.82,26.80,1022.00,2029.04,2968.72,2982.45,3233.71,349.68,348.20,9.14,0000 0000 0000 0000 000000
2015-01-16 07:13:55,0.11,1.16,0.00,23.74,27.85,30.47,4.75,26.77,1021.99,2029.04,2967.46,2981.21,3232.53,350.00,348.81,9.17,0000 0000 0000 0000 000000
2015-01-16 07:18:56,0.14,1.16,0.00,23.72,27.85,30.49,4.80,26.88,1021.99,2029.02,2965.86,2980.22,3231.27,350.05,348.73,9.20,0000 0000 0000 0000 000000
2015-01-16 07:23:57,0.12,1.17,0.00,23.72,27.85,30.48,4.78,26.94,1021.99,2029.02,2964.15,2979.04,3229.98,350.32,348.76,9.23,0000 0000 0000 0000 000000
2015-01-16 07:28:59,0.12,1.17,0.00,23.72,27.85,30.46,4.82,26.92,1021.99,2029.00,2962.66,2978.11,3229.06,349.96,348.85,9.26,0000 0000 0000 0000 000000
2015-01-16 07:34:00,0.15,1.17,0.00,23.74,27.85,30.49,4.71,26.79,1021.99,2029.01,2961.36,2977.02,3227.75,349.96,348.55,9.29,0000 0000 0000 0000 000000
2015-01-16 07:39:02,0.38,1.18,0.00,23.73,27.85,30.48,4.74,26.78,1021.99,2029.00,2957.39,2974.45,3224.94,349.90,348.56,9.31,0000 0000 0000 0000 000000
2015-01-16 07:44:03,0.22,1.19,0.00,23.73,27.85,30.48,4.79,27.00,1021.99,2029.00,2953.77,2972.13,3222.75,349.98,348.60,9.34,0000 0000 0000 0000 000000
2015-01-16 07:49:04,0.09,1.20,0.00,23.72,27.86,30.48,4.69,26.81,1021.96,2029.00,2952.43,2971.31,3221.98,349.30,348.18,9.37,0000 0000 0000 0000 000000
2015-01-16 07:54:05,0.10,1.20,0.00,23.74,27.86,30.48,4.87,27.02,1021.92,2029.01,2951.24,2970.56,3221.14,350.32,348.99,9.40,0000 0000 0000 0000 000000
2015-01-16 07:59:07,0.09,1.20,0.00,23.72,27.87,30.48,4.82,26.98,1021.89,2029.00,2950.05,2969.81,3220.31,350.22,348.86,9.43,0000 0000 0000 0000 000000
2015-01-16 08:04:08,0.08,1.20,0.00,23.68,27.87,30.50,4.81,27.04,1021.87,2029.01,2949.07,2969.04,3219.52,350.11,348.69,9.46,0000 0000 0000 0000 000000
2015-01-16 08:09:09,0.10,1.21,0.00,23.69,27.87,30.49,4.85,27.02,1021.64,2029.01,2947.95,2968.35,3218.84,350.31,348.89,9.49,0000 0000 0000 0000 000000
2015-01-16 08:14:10,0.15,1.21,0.00,23.68,27.87,30.46,4.82,26.94,1021.53,2029.02,2946.18,2967.12,3217.35,350.10,348.90,9.52,0000 0000 0000 0000 000000
2015-01-16 08:19:11,0.16,1.22,0.00,23.72,27.87,30.50,4.86,27.07,1021.52,2029.00,2944.54,2965.88,3215.97,350.35,348.87,9.55,0000 0000 0000 0000 000000
2015-01-16 08:24:13,0.21,1.22,0.00,23.70,27.87,30.48,4.75,26.94,1021.52,2029.00,2942.13,2964.30,3214.41,349.37,348.04,9.58,0000 0000 0000 0000 000000
2015-01-16 08:29:14,0.22,1.23,0.00,23.69,27.87,30.51,4.75,26.94,1021.52,2029.01,2939.44,2962.59,3212.65,349.88,348.51,9.61,0000 0000 0000 0000 000000
2015-01-16 08:34:15,0.11,1.23,0.00,23.70,27.87,30.47,4.82,27.07,1021.51,2029.00,2937.99,2961.29,3211.12,349.95,348.61,9.64,0000 0000 0000 0000 000000
2015-01-16 08:39:16,0.12,1.24,0.00,23.75,27.87,30.47,4.82,27.09,1021.50,2029.00,2936.68,2960.52,3210.14,350.08,348.61,9.67,0000 0000 0000 0000 000000
2015-01-16 08:44:18,0.13,1.24,0.00,23.73,27.87,30.50,4.84,26.98,1021.50,2029.00,2935.07,2959.56,3209.06,350.60,349.16,9.70,0000 0000 0000 0000 000000
2015-01-16 08:49:19,0.23,1.25,0.00,23.73,27.87,30.50,4.75,26.83,1021.49,2029.00,2932.66,2957.89,3207.41,349.49,348.11,9.72,0000 0000 0000 0000 000000
2015-01-16 08:54:20,0.26,1.25,0.00,23.68,27.87,30.46,4.78,26.88,1021.49,2029.00,2929.67,2955.89,3205.23,349.74,348.11,9.75,0000 0000 0000 0000 000000
2015-01-16 08:59:22,0.22,1.26,0.00,23.69,27.87,30.49,4.72,26.93,1021.49,2029.00,2926.99,2954.07,3203.37,349.38,347.92,9.78,0000 0000 0000 0000 000000
2015-01-16 09:04:23,0.19,1.27,0.00,23.71,27.87,30.48,4.74,27.01,1021.50,2029.00,2924.41,2952.54,3201.88,349.32,347.81,9.81,0000 0000 0000 0000 000000
2015-01-16 09:09:24,0.25,1.27,0.00,23.69,27.87,30.48,4.82,26.90,1021.50,2029.00,2921.92,2950.83,3199.90,349.76,348.52,9.84,0000 0000 0000 0000 000000
2015-01-16 09:14:25,0.20,1.28,0.00,23.70,27.87,30.49,4.81,27.13,1021.50,2029.00,2919.18,2949.03,3198.21,349.87,348.46,9.87,0000 0000 0000 0000 000000
2015-01-16 09:19:26,0.13,1.28,0.00,23.69,27.87,30.50,4.83,27.06,1021.47,2029.00,2917.29,2947.84,3197.00,350.28,348.90,9.90,0000 0000 0000 0000 000000
2015-01-16 09:24:28,0.09,1.29,0.00,23.72,27.87,30.50,4.83,27.07,1021.45,2029.00,2916.00,2947.03,3196.11,350.31,348.88,9.93,0000 0000 0000 0000 000000
2015-01-16 09:29:29,0.10,1.29,0.00,23.73,27.87,30.50,4.81,26.89,1021.44,2029.00,2914.97,2946.24,3195.47,349.87,348.29,9.96,0000 0000 0000 0000 000000
2015-01-16 09:34:30,0.06,1.29,0.00,23.75,27.87,30.49,4.82,26.88,1021.47,2029.00,2914.13,2945.80,3194.72,350.21,348.36,9.99,0000 0000 0000 0000 000000
2015-01-16 09:39:32,0.07,1.30,0.00,23.72,27.87,30.50,4.81,27.10,1021.38,2029.00,2913.38,2945.05,3194.02,349.41,347.82,10.02,0000 0000 0000 0000 000000
2015-01-16 09:44:33,0.07,1.30,0.00,23.72,27.87,30.51,4.76,27.00,1021.23,2029.00,2912.79,2944.74,3193.39,349.37,347.89,10.05,0000 0000 0000 0000 000000
2015-01-16 09:49:34,0.05,1.30,0.00,23.72,27.87,30.52,4.81,27.08,1021.23,2029.00,2912.03,2944.03,3192.82,350.04,348.65,10.08,0000 0000 0000 0000 000000
2015-01-16 09:54:35,0.08,1.30,0.00,23.73,27.87,30.49,4.74,26.90,1021.12,2029.00,2911.27,2943.61,3192.04,349.79,348.09,10.11,0000 0000 0000 0000 000000
2015-01-16 09:59:36,0.07,1.30,0.00,23.70,27.87,30.50,4.74,26.89,1021.02,2029.00,2910.13,2942.99,3191.52,349.80,348.06,10.13,0000 0000 0000 0000 000000
2015-01-16 10:04:38,0.08,1.31,0.00,23.69,27.87,30.50,4.81,26.83,1021.01,2029.00,2909.35,2942.37,3191.01,350.11,348.31,10.16,0000 0000 0000 0000 000000
2015-01-16 10:09:39,0.03,1.31,0.00,23.66,27.87,30.51,4.77,27.02,1021.01,2029.00,2908.91,2942.00,3190.24,349.84,348.56,10.19,0000 0000 0000 0000 000000
2015-01-16 10:14:40,0.07,1.31,0.00,23.68,27.87,30.52,4.83,27.01,1021.01,2029.00,2908.10,2941.51,3189.97,349.67,347.98,10.22,0000 0000 0000 0000 000000
2015-01-16 10:19:41,0.06,1.31,0.00,23.70,27.87,30.51,4.79,26.82,1021.01,2029.00,2907.30,2941.00,3189.35,349.82,348.22,10.25,0000 0000 0000 0000 000000
2015-01-16 10:24:42,0.08,1.31,0.00,23.70,27.87,30.49,4.75,26.91,1021.01,2029.00,2906.29,2940.29,3188.93,349.67,348.11,10.28,0000 0000 0000 0000 000000
2015-01-16 10:29:43,0.06,1.31,0.00,23.69,27.87,30.53,4.79,26.73,1021.01,2029.00,2905.57,2939.96,3188.14,349.89,348.21,10.31,0000 0000 0000 0000 000000
2015-01-16 10:34:44,0.09,1.32,0.00,23.71,27.88,30.52,4.80,26.94,1021.01,2029.00,2904.65,2939.19,3187.53,349.73,348.24,10.34,0000 0000 0000 0000 000000
2015-01-16 10:39:45,0.08,1.32,0.00,23.71,27.88,30.54,4.80,27.06,1020.94,2029.00,2903.83,2938.53,3186.77,350.39,348.51,10.37,0000 0000 0000 0000 000000
2015-01-16 10:44:46,0.05,1.32,0.00,23.71,27.88,30.50,4.76,26.98,1020.85,2029.00,2903.08,2938.01,3186.04,349.93,348.24,10.40,0000 0000 0000 0000 000000
2015-01-16 10:49:47,0.09,1.32,0.00,23.67,27.89,30.48,4.82,26.99,1020.79,2029.00,2902.23,2937.47,3185.53,350.02,348.02,10.43,0000 0000 0000 0000 000000
2015-01-16 10:54:48,0.05,1.33,0.00,23.69,27.89,30.48,4.80,26.89,1020.84,2029.00,2901.23,2936.99,3185.01,350.16,348.32,10.46,0000 0000 0000 0000 000000
2015-01-16 10:59:50,0.08,1.33,0.00,23.67,27.89,30.52,4.82,27.00,1020.82,2029.01,2900.73,2936.31,3184.40,350.10,348.44,10.49,0000 0000 0000 0000 000000
2015-01-16 11:04:50,0.02,1.33,0.00,23.69,27.90,30.50,4.78,26.98,1020.66,2029.00,2900.02,2936.00,3183.89,350.23,348.49,10.52,0000 0000 0000 0000 000000
2015-01-16 11:09:52,0.08,1.33,0.00,23.68,27.90,30.51,4.78,26.95,1020.56,2029.02,2899.27,2935.60,3183.36,349.98,348.05,10.54,0000 0000 0000 0000 000000
2015-01-16 11:14:53,0.03,1.33,0.00,23.70,27.90,30.51,4.76,26.98,1020.54,2029.01,2898.83,2935.02,3182.93,350.09,348.23,10.57,0000 0000 0000 0000 000000
2015-01-16 11:19:54,0.08,1.33,0.00,23.71,27.90,30.51,4.81,26.93,1020.57,2029.01,2898.04,2934.57,3182.28,350.32,348.58,10.60,0000 0000 0000 0000 000000
2015-01-16 11:24:56,0.04,1.34,0.00,23.69,27.90,30.51,4.73,26.88,1020.65,2029.01,2897.22,2934.03,3181.96,349.58,348.17,10.63,0000 0000 0000 0000 000000
2015-01-16 11:29:57,0.04,1.34,0.00,23.71,27.90,30.53,4.81,26.82,1020.61,2029.02,2896.80,2933.81,3181.29,350.05,348.10,10.66,0000 0000 0000 0000 000000
2015-01-16 11:34:58,0.06,1.34,0.00,23.70,27.90,30.53,4.79,26.84,1020.54,2029.01,2895.96,2933.07,3181.00,349.87,347.88,10.69,0000 0000 0000 0000 000000
2015-01-16 11:39:59,0.07,1.34,0.00,23.69,27.89,30.53,4.76,26.93,1020.54,2029.01,2895.14,2932.83,3180.39,350.08,348.32,10.72,0000 0000 0000 0000 000000
2015-01-16 11:45:01,0.04,1.34,0.00,23.70,27.89,30.51,4.75,26.93,1020.53,2029.02,2894.81,2932.13,3179.99,350.28,348.55,10.75,0000 0000 0000 0000 000000
2015-01-16 11:50:02,0.04,1.35,0.00,23.69,27.89,30.52,4.75,27.02,1020.53,2029.01,2894.22,2931.98,3179.33,349.68,347.93,10.78,0000 0000 0000 0000 000000
2015-01-16 11:55:04,0.06,1.35,0.00,23.68,27.90,30.51,4.77,27.05,1020.52,2029.00,2893.63,2931.35,3179.00,349.49,347.94,10.81,0000 0000 0000 0000 000000
2015-01-16 12:00:05,0.03,1.35,0.00,23.67,27.90,30.52,4.83,26.90,1020.52,2029.00,2893.01,2931.01,3178.57,350.22,348.42,10.84,0000 0000 0000 0000 000000
2015-01-16 12:05:06,0.05,1.35,0.00,23.71,27.90,30.51,4.77,26.95,1020.52,2029.00,2892.38,2930.84,3178.02,350.16,348.35,10.87,0000 0000 0000 0000 000000
2015-01-16 12:10:08,0.07,1.35,0.00,23.73,27.89,30.50,4.73,27.11,1020.51,2029.00,2891.70,2930.09,3177.76,349.57,348.00,10.90,0000 0000 0000 0000 000000
2015-01-16 12:15:09,0.03,1.35,0.00,23.72,27.90,30.50,4.78,26.94,1020.52,2029.00,2891.01,2929.96,3177.08,350.00,348.14,10.93,0000 0000 0000 0000 000000
2015-01-16 12:20:10,0.07,1.36,0.00,23.72,27.89,30.50,4.80,26.94,1020.49,2029.00,2890.42,2929.38,3176.99,349.94,348.13,10.95,0000 0000 0000 0000 000000
2015-01-16 12:25:11,0.04,1.36,0.00,23.69,27.90,30.53,4.77,27.06,1020.39,2029.00,2889.97,2929.00,3176.37,349.67,347.72,10.98,0000 0000 0000 0000 000000
2015-01-16 12:30:12,0.06,1.36,0.00,23.69,27.90,30.53,4.85,26.87,1020.29,2029.00,2889.22,2928.69,3175.99,350.34,348.43,11.01,0000 0000 0000 0000 000000
2015-01-16 12:35:14,0.06,1.36,0.00,23.72,27.90,30.53,4.80,26.96,1020.10,2029.00,2888.59,2928.05,3175.63,350.03,347.96,11.04,0000 0000 0000 0000 000000
2015-01-16 12:40:15,0.02,1.36,0.00,23.71,27.90,30.55,4.83,27.21,1020.08,2029.00,2888.00,2927.94,3175.02,350.29,348.36,11.07,0000 0000 0000 0000 000000
2015-01-16 12:45:17,0.07,1.36,0.00,23.72,27.90,30.52,4.84,27.03,1020.05,2029.00,2887.48,2927.30,3174.74,350.35,348.44,11.10,0000 0000 0000 0000 000000
2015-01-16 12:50:18,0.03,1.36,0.00,23.71,27.90,30.53,4.76,26.95,1020.04,2029.00,2886.89,2927.00,3174.04,349.91,348.12,11.13,0000 0000 0000 0000 000000
2015-01-16 12:55:19,0.07,1.37,0.00,23.72,27.90,30.52,4.76,26.86,1020.04,2029.00,2886.08,2926.52,3173.93,349.61,347.73,11.16,0000 0000 0000 0000 000000
2015-01-16 13:00:20,0.05,1.37,0.00,23.71,27.90,30.54,4.73,26.97,1020.04,2029.01,2885.62,2926.02,3173.19,349.74,347.87,11.19,0000 0000 0000 0000 000000
2015-01-16 13:05:22,0.01,1.37,0.00,23.72,27.90,30.52,4.76,27.00,1020.04,2029.02,2885.01,2925.91,3172.99,349.77,347.81,11.22,0000 0000 0000 0000 000000